GW4285 Weather Reports


Display with metric or nautical units.
time (UTC)temp
F
wind
direction
speed
MPH
gust
MPH
rain 1hr
in
rain 24hr
in
rain mn
in
humidity
%
barometer
mb
20260506001432 59 256 5.0 7.0 0.00 0.03 0.03 81 1015.5
20260506000929 59 260 5.0 8.0 0.00 0.03 0.03 82 1015.5
20260506000426 60 272 3.0 7.0 0.00 0.03 0.03 81 1015.5
20260505235923 60 247 2.0 8.0 0.00 0.03 0.03 81 1015.4
20260505235421 60 240 3.0 8.0 0.00 0.03 0.03 81 1015.4
20260505234917 60 267 5.0 7.0 0.00 0.03 0.03 80 1015.4
20260505234415 60 259 6.0 10.0 0.00 0.03 0.03 81 1015.5
20260505233912 60 265 8.0 10.0 0.00 0.03 0.03 80 1015.4
20260505233409 60 240 7.0 11.0 0.00 0.03 0.03 80 1015.5
20260505232907 60 286 6.0 10.0 0.00 0.03 0.03 81 1015.3
20260505232404 60 248 7.0 11.0 0.00 0.03 0.03 81 1015.4
20260505231901 60 266 5.0 5.0 0.00 0.03 0.03 81 1015.3
20260505231358 60 239 5.0 8.0 0.00 0.03 0.03 81 1015.4
20260505230857 61 253 4.0 7.0 0.00 0.03 0.03 81 1015.4
20260505230354 61 260 1.0 5.0 0.00 0.03 0.03 81 1015.3
20260505225850 61 261 4.0 5.0 0.00 0.03 0.03 79 1015.4
20260505225348 61 249 2.0 7.0 0.00 0.03 0.03 80 1015.3
20260505224842 62 277 4.0 5.0 0.00 0.03 0.03 80 1015.3
20260505224341 63 245 1.0 1.0 0.00 0.03 0.03 79 1015.3
20260505223837 63 272 1.0 4.0 0.00 0.03 0.03 77 1015.4
20260505223334 64 261 1.0 3.0 0.00 0.03 0.03 78 1015.4
20260505222830 63 277 0.0 4.0 0.00 0.03 0.03 79 1015.4
20260505222326 62 259 1.0 5.0 0.00 0.03 0.03 78 1015.4
20260505221824 63 261 3.0 7.0 0.00 0.03 0.03 77 1015.4
20260505221320 63 253 1.0 7.0 0.00 0.03 0.03 78 1015.4
20260505220817 62 255 2.0 5.0 0.00 0.03 0.03 78 1015.4
20260505220314 62 265 4.0 5.0 0.00 0.03 0.03 79 1015.5
20260505215813 62 240 3.0 8.0 0.00 0.03 0.03 79 1015.4
20260505215310 62 272 3.0 5.0 0.00 0.03 0.03 79 1015.6
20260505214808 62 263 3.0 4.0 0.00 0.03 0.03 80 1015.5
20260505214305 61 260 5.0 7.0 0.00 0.03 0.03 80 1015.5
20260505213802 61 243 6.0 7.0 0.00 0.03 0.03 79 1015.7
20260505213300 62 231 6.0 10.0 0.00 0.03 0.03 80 1015.7
20260505212755 62 224 0.0 5.0 0.00 0.03 0.03 79 1015.6
20260505212253 61 250 7.0 8.0 0.00 0.03 0.03 79 1015.8
20260505211749 62 250 1.0 7.0 0.00 0.03 0.03 79 1015.6
20260505211247 61 247 3.0 5.0 0.00 0.03 0.03 79 1015.8
20260505210743 61 257 5.0 7.0 0.00 0.03 0.03 79 1015.8
20260505210240 62 245 3.0 7.0 0.00 0.03 0.03 78 1015.8
20260505205737 61 262 4.0 7.0 0.00 0.03 0.03 81 1015.8
20260505205235 61 270 0.0 0.0 0.00 0.03 0.03 80 1015.9
20260505204731 61 262 4.0 5.0 0.00 0.03 0.03 80 1015.8
20260505204229 62 237 0.0 1.0 0.00 0.03 0.03 78 1015.7
20260505203726 61 233 0.0 0.0 0.00 0.03 0.03 79 1015.9
20260505203223 61 234 0.0 4.0 0.00 0.03 0.03 80 1015.6
20260505202719 62 244 2.0 8.0 0.00 0.03 0.03 79 1015.7
20260505202215 62 259 3.0 4.0 0.00 0.03 0.03 78 1015.8
20260505201712 61 267 1.0 3.0 0.00 0.03 0.03 81 1015.8
20260505201210 62 254 1.0 1.0 0.00 0.03 0.03 80 1015.9
20260505200708 61 236 3.0 5.0 0.00 0.03 0.03 79 1015.9
20260505200204 61 246 3.0 8.0 0.00 0.03 0.03 80 1015.9
20260505195700 61 240 2.0 5.0 0.00 0.03 0.03 82 1015.8
20260505195158 60 260 0.0 3.0 0.00 0.03 0.03 81 1016.0
20260505194655 60 248 3.0 4.0 0.00 0.03 0.03 81 1015.9
20260505194151 60 266 3.0 5.0 0.00 0.03 0.03 81 1016.0
20260505193647 60 257 1.0 4.0 0.00 0.03 0.03 84 1015.8
20260505193144 60 254 3.0 4.0 0.00 0.03 0.03 82 1015.9
20260505192643 60 267 3.0 7.0 0.00 0.03 0.03 82 1015.9
20260505192140 59 242 2.0 4.0 0.00 0.03 0.03 82 1015.9
20260505191639 60 249 3.0 5.0 0.00 0.03 0.03 82 1015.9
20260505191136 59 255 0.0 4.0 0.00 0.03 0.03 83 1015.9
20260505190632 59 244 5.0 5.0 0.00 0.03 0.03 83 1015.9
20260505190127 59 253 3.0 7.0 0.00 0.03 0.03 82 1016.0
20260505185624 59 237 4.0 7.0 0.00 0.03 0.03 81 1015.8
20260505185120 59 240 3.0 5.0 0.00 0.03 0.03 79 1015.7
20260505184617 59 259 4.0 4.0 0.00 0.03 0.03 80 1015.8
20260505184114 59 248 4.0 5.0 0.00 0.03 0.03 80 1015.9
20260505183610 60 250 1.0 4.0 0.00 0.03 0.03 81 1015.8
20260505183108 60 255 2.0 4.0 0.00 0.03 0.03 82 1015.8
20260505182604 61 254 5.0 8.0 0.00 0.03 0.03 79 1015.8
20260505182101 61 261 3.0 4.0 0.00 0.03 0.03 78 1015.8
20260505181558 60 259 0.0 1.0 0.07 0.03 0.03 82 1015.8
20260505181055 59 249 1.0 4.0 0.07 0.03 0.03 84 1015.7
20260505180550 59 255 0.0 3.0 0.00 0.02 0.02 81 1015.8
20260505180049 59 250 3.0 4.0 0.00 0.02 0.02 84 1015.8
20260505175549 58 248 1.0 3.0 0.00 0.02 0.02 86 1015.7
20260505175046 58 263 0.0 1.0 0.00 0.02 0.02 86 1015.8
20260505174538 57 263 0.0 0.0 0.00 0.02 0.02 88 1015.6
20260505174034 57 262 2.0 3.0 0.00 0.02 0.02 87 1015.6
20260505173531 57 247 0.0 1.0 0.00 0.02 0.02 88 1015.5
20260505173028 57 230 3.0 4.0 0.00 0.02 0.02 88 1015.4
20260505172526 56 251 0.0 4.0 0.00 0.02 0.02 90 1015.4
20260505172021 56 252 0.0 3.0 0.00 0.02 0.02 89 1015.4
20260505171517 56 244 3.0 5.0 0.00 0.02 0.02 89 1015.4
20260505171014 56 253 0.0 3.0 0.00 0.02 0.02 90 1015.5
20260505170510 56 240 0.0 3.0 0.00 0.02 0.02 91 1015.6
20260505170006 56 254 0.0 3.0 0.00 0.02 0.02 90 1015.5
20260505165501 57 257 0.0 0.0 0.00 0.02 0.02 90 1015.5
20260505164957 56 257 0.0 0.0 0.00 0.02 0.02 92 1015.4
20260505164454 55 256 0.0 1.0 0.00 0.02 0.02 91 1015.5
20260505163952 55 259 1.0 3.0 0.00 0.02 0.02 93 1015.5
20260505163450 55 259 0.0 4.0 0.00 0.02 0.02 92 1015.5
20260505162950 55 246 0.0 3.0 0.00 0.02 0.02 93 1015.5
20260505162445 54 253 0.0 1.0 0.00 0.02 0.02 95 1015.5
20260505161941 54 252 0.0 0.0 0.00 0.02 0.02 96 1015.4
20260505161438 54 253 0.0 0.0 0.00 0.02 0.02 99 1015.3
20260505160936 53 248 0.0 0.0 0.00 0.02 0.02 99 1015.3
20260505160434 53 249 0.0 1.0 0.00 0.02 0.02 99 1015.3
20260505152910 53 238 0.0 0.0 0.00 0.02 0.02 99 1015.0
20260505152407 52 238 0.0 0.0 0.00 0.02 0.02 99 1014.9
20260505151907 52 238 0.0 0.0 0.00 0.02 0.02 99 1014.8
20260505151404 53 238 0.0 0.0 0.00 0.02 0.02 99 1014.9
20260505150901 52 238 0.0 0.0 0.00 0.02 0.02 99 1014.9
20260505150358 52 238 0.0 0.0 0.00 0.02 0.02 99 1014.8
20260505140317 52 239 0.0 0.0 0.00 0.02 0.02 99 1014.4
20260505130240 51 238 0.0 0.0 0.00 0.02 0.02 99 1014.1
20260505124730 51 238 0.0 0.0 0.00 0.02 0.02 99 1014.1
20260505124227 51 238 0.0 0.0 0.00 0.02 0.02 99 1013.9
20260505123722 51 238 0.0 0.0 0.00 0.02 0.02 99 1014.0
20260505123220 51 238 0.0 0.0 0.00 0.02 0.02 99 1014.0
20260505122716 51 247 0.0 0.0 0.00 0.02 0.02 99 1014.0
20260505122214 51 247 0.0 0.0 0.00 0.02 0.02 99 1014.1
20260505121710 51 247 0.0 0.0 0.00 0.02 0.02 99 1013.9
20260505121207 51 247 0.0 0.0 0.00 0.02 0.02 99 1014.0
20260505120703 51 247 0.0 0.0 0.00 0.02 0.02 99 1014.0
20260505120159 51 247 0.0 0.0 0.00 0.02 0.02 99 1014.0
20260505115658 51 247 0.0 0.0 0.00 0.02 0.02 99 1013.9
20260505115156 51 247 0.0 0.0 0.00 0.02 0.02 99 1014.0
20260505114653 51 247 0.0 0.0 0.00 0.02 0.02 99 1014.0
20260505114149 51 247 0.0 0.0 0.00 0.02 0.02 99 1013.9
20260505113646 51 247 0.0 0.0 0.00 0.02 0.02 99 1014.1
20260505113143 51 247 0.0 0.0 0.00 0.02 0.02 99 1014.1
20260505112639 51 257 1.0 1.0 0.00 0.02 0.02 99 1014.1
20260505112138 51 250 0.0 0.0 0.00 0.02 0.02 99 1014.2
20260505111637 51 250 0.0 0.0 0.00 0.02 0.02 99 1014.3
20260505111133 51 250 0.0 0.0 0.00 0.02 0.02 99 1014.2
20260505110629 51 250 0.0 0.0 0.00 0.02 0.02 99 1014.2
20260505110127 51 235 0.0 0.0 0.00 0.02 0.02 99 1014.4
20260505102102 51 232 0.0 0.0 0.00 0.02 0.02 99 1014.4
20260505101601 51 232 0.0 0.0 0.00 0.02 0.02 99 1014.3
20260505101056 51 232 0.0 0.0 0.00 0.02 0.02 99 1014.5
20260505100553 51 232 0.0 0.0 0.00 0.02 0.02 99 1014.5
20260505100050 51 234 0.0 0.0 0.00 0.02 0.02 99 1014.4
20260505095546 51 233 0.0 0.0 0.00 0.02 0.02 99 1014.2
20260505095043 51 235 0.0 0.0 0.00 0.02 0.02 99 1014.2
20260505094539 51 235 0.0 0.0 0.00 0.02 0.02 99 1014.2
20260505094036 51 247 0.0 0.0 0.00 0.02 0.02 99 1014.3
20260505093532 51 247 0.0 0.0 0.00 0.02 0.02 99 1014.4
20260505093030 51 251 0.0 0.0 0.00 0.02 0.02 99 1014.3
20260505092527 51 252 0.0 0.0 0.00 0.02 0.02 99 1014.4
20260505092025 51 242 0.0 0.0 0.00 0.02 0.02 99 1014.2
20260505091522 51 245 0.0 0.0 0.00 0.02 0.02 99 1014.0
20260505091020 51 262 0.0 0.0 0.00 0.02 0.02 99 1014.3
20260505090518 51 262 0.0 0.0 0.00 0.02 0.02 99 1014.5
20260505090015 51 255 0.0 0.0 0.00 0.02 0.02 99 1014.7
20260505085513 51 258 0.0 0.0 0.00 0.02 0.02 99 1014.7
20260505085011 51 256 0.0 0.0 0.00 0.02 0.02 99 1014.7
20260505084509 51 255 0.0 0.0 0.00 0.02 0.02 99 1014.8
20260505084007 51 228 0.0 0.0 0.00 0.02 0.02 99 1014.8
20260505083504 51 238 0.0 0.0 0.00 0.02 0.02 99 1014.9
20260505083000 51 242 0.0 0.0 0.00 0.02 0.02 99 1014.8
20260505082455 51 242 0.0 0.0 0.00 0.02 0.02 99 1014.8
20260505081953 51 241 0.0 0.0 0.00 0.02 0.02 99 1014.8
20260505081449 51 241 0.0 0.0 0.00 0.02 0.02 99 1014.8
20260505080946 51 239 0.0 0.0 0.00 0.02 0.02 99 1014.8
20260505080442 51 239 0.0 0.0 0.00 0.02 0.02 99 1015.0
20260505075938 51 239 0.0 0.0 0.00 0.02 0.02 99 1014.8
20260505075435 51 239 0.0 0.0 0.00 0.02 0.02 99 1015.1
20260505074932 51 256 0.0 0.0 0.00 0.02 0.02 99 1015.2
20260505074430 51 258 0.0 0.0 0.00 0.02 0.02 99 1015.0
20260505073926 51 245 0.0 0.0 0.00 0.02 0.02 99 1015.0
20260505073424 51 237 0.0 0.0 0.05 0.02 0.02 99 1015.0
20260505072921 51 238 0.0 0.0 0.05 0.02 0.02 99 1015.2
20260505072417 51 253 0.0 0.0 0.00 0.01 0.01 99 1015.2
20260505071914 51 260 0.0 0.0 0.00 0.01 0.01 99 1015.2
20260505071410 51 222 0.0 1.0 0.00 0.01 0.01 99 1015.2
20260505070908 51 250 0.0 0.0 0.07 0.01 0.01 99 1015.0
20260505070404 51 238 0.0 1.0 0.19 0.01 0.01 99 1014.9
20260505065900 51 261 0.0 1.0 0.14 0.53 0.53 99 1015.1
20260505065356 51 255 1.0 3.0 0.07 0.52 0.52 99 1015.1
20260505064853 51 254 0.0 0.0 0.00 0.51 0.51 99 1015.3
20260505064350 51 251 0.0 1.0 0.05 0.51 0.51 99 1015.4
20260505063849 51 251 0.0 0.0 0.12 0.51 0.51 99 1015.3
20260505063344 51 223 1.0 1.0 0.24 0.50 0.50 99 1015.2
20260505062841 51 262 0.0 3.0 0.24 0.48 0.48 99 1015.1
20260505062339 51 244 0.0 0.0 0.24 0.46 0.46 99 1015.2
20260505061835 51 249 0.0 0.0 0.19 0.44 0.44 99 1015.3
20260505061333 51 265 0.0 0.0 0.14 0.42 0.42 99 1015.3
20260505060831 51 269 0.0 0.0 0.12 0.41 0.41 99 1015.0
20260505060327 51 254 2.0 3.0 0.12 0.40 0.40 99 1015.4
20260505055823 51 253 3.0 3.0 0.07 0.39 0.39 99 1015.5
20260505055319 51 251 0.0 0.0 0.00 0.38 0.38 99 1015.6
20260505054817 51 232 0.0 0.0 0.00 0.38 0.38 99 1015.4
20260505054314 51 235 0.0 0.0 0.00 0.38 0.38 99 1015.4
20260505053812 51 256 0.0 0.0 0.00 0.38 0.38 99 1015.5
20260505053309 51 231 0.0 0.0 0.00 0.38 0.38 99 1015.4
20260505052806 51 261 0.0 0.0 0.05 0.38 0.38 99 1015.3
20260505052304 51 218 0.0 0.0 0.00 0.37 0.37 99 1015.3
20260505051759 51 266 0.0 0.0 0.00 0.37 0.37 99 1015.4
20260505051257 51 266 0.0 0.0 0.00 0.37 0.37 99 1015.2
20260505050755 51 249 0.0 3.0 0.00 0.37 0.37 99 1015.4
20260505050254 51 263 0.0 0.0 0.00 0.37 0.37 99 1015.6
20260505041723 51 234 0.0 0.0 0.07 0.37 0.37 99 1015.4
20260505041220 51 298 0.0 0.0 0.00 0.36 0.36 99 1015.8
20260505040718 51 298 0.0 0.0 0.05 0.36 0.36 99 1015.9
20260505040215 51 295 0.0 0.0 0.05 0.36 0.36 99 1015.9
20260505035712 51 298 0.0 0.0 0.00 0.35 0.35 99 1015.8
20260505035208 51 299 0.0 0.0 0.00 0.35 0.35 99 1015.7
20260505034705 51 320 0.0 0.0 0.07 0.35 0.35 99 1015.7
20260505034202 51 240 0.0 0.0 0.07 0.35 0.35 99 1015.4
20260505033657 51 241 0.0 0.0 0.00 0.34 0.34 99 1015.0
20260505033156 51 340 0.0 1.0 0.00 0.34 0.34 99 1014.9
20260505032654 51 224 0.0 0.0 0.05 0.34 0.34 99 1014.6
20260505032149 51 244 0.0 0.0 0.05 0.34 0.34 99 1014.5
20260505031647 51 253 0.0 0.0 0.07 0.33 0.33 99 1014.2
20260505031143 51 245 0.0 0.0 0.07 0.33 0.33 99 1014.4
20260505030640 51 253 0.0 0.0 0.00 0.32 0.32 99 1014.6
20260505030136 52 246 0.0 0.0 0.05 0.32 0.32 99 1014.6
20260505025632 52 250 0.0 0.0 0.05 0.32 0.32 99 1014.7
20260505025131 52 258 0.0 0.0 0.07 0.31 0.31 99 1014.8
20260505024628 52 259 0.0 0.0 0.12 0.30 0.30 99 1014.9
20260505024125 52 258 0.0 0.0 0.12 0.30 0.30 99 1015.1
20260505023622 52 256 0.0 1.0 0.07 0.28 0.28 99 1014.9
20260505023120 52 246 0.0 0.0 0.07 0.28 0.28 99 1015.0
20260505022617 52 242 0.0 0.0 0.05 0.27 0.27 99 1015.0
20260505022114 52 241 0.0 0.0 0.05 0.27 0.27 99 1015.2
20260505021610 52 258 0.0 0.0 0.07 0.26 0.26 99 1015.1
20260505021107 52 242 0.0 0.0 0.00 0.25 0.25 99 1015.2
20260505020603 52 246 0.0 0.0 0.05 0.25 0.25 99 1015.4
20260505020059 52 246 0.0 0.0 0.07 0.24 0.24 99 1015.4
20260505015556 52 246 0.0 0.0 0.07 0.24 0.24 99 1015.2
20260505015053 52 251 0.0 0.0 0.00 0.23 0.23 99 1015.2
20260505014550 52 250 0.0 0.0 0.00 0.23 0.23 99 1015.4
20260505014047 52 250 0.0 0.0 0.05 0.23 0.23 99 1015.3
20260505013544 52 254 0.0 0.0 0.17 0.23 0.23 99 1015.4
20260505013041 52 240 0.0 0.0 0.12 0.22 0.22 99 1015.4
20260505012539 52 225 0.0 0.0 0.07 0.20 0.20 99 1015.5
20260505012036 52 246 0.0 0.0 0.12 0.20 0.20 99 1015.6
20260505011536 52 255 0.0 0.0 0.05 0.19 0.19 99 1015.7
20260505011034 52 253 0.0 0.0 0.07 0.18 0.18 99 1015.7
20260505010529 52 257 0.0 1.0 0.12 0.18 0.18 99 1015.7
20260505010026 53 245 0.0 0.0 0.05 0.17 0.17 99 1015.6
20260505005522 53 259 0.0 0.0 0.07 0.16 0.16 99 1015.7
20260505005020 53 246 0.0 0.0 0.07 0.16 0.16 99 1015.7
20260505004517 53 254 0.0 0.0 0.07 0.15 0.15 99 1015.5
20260505004014 53 262 0.0 0.0 0.12 0.15 0.15 99 1015.5
20260505003511 53 264 0.0 1.0 0.12 0.14 0.14 99 1015.4
20260505003008 53 258 0.0 0.0 0.07 0.13 0.13 99 1015.6
20260505002503 53 242 0.0 0.0 0.05 0.12 0.12 98 1015.4
20260505002002 53 246 0.0 0.0 0.05 0.12 0.12 98 1015.4